Regional Weather Roundup
Issued by NWS

Home | Current Version | Previous Version | Graphics & Text | Print | Product List | Glossary On
Versions: 1 2 3 4 5 6 7 8 9 10 11 12 13 14 15 16 17 18 19 20 21 22 23 24 25 26 27 28 29 30 31 32 33 34 35 36 37 38 39 40 41 42 43 44 45 46 47 48 49 50
000
ASUS43 KFSD 190210
RWRSD

WEATHER ROUNDUP FOR SOUTH DAKOTA
NATIONAL WEATHER SERVICE SIOUX FALLS SD
800 PM CST SAT NOV 18 2017

NOTE: "FAIR" INDICATES FEW OR NO CLOUDS BELOW 12,000 FEET WITH NO
SIGNIFICANT WEATHER AND/OR OBSTRUCTIONS TO VISIBILITY.


SDZ001>005-009-010-012>017-190300-
NORTHWEST AND NORTH CENTRAL SOUTH DAKOTA

CITY           SKY/WX    TMP DP  RH WIND       PRES   REMARKS
BUFFALO          N/A     32  21  64 W9        30.03F WCI  24
FAITH            N/A     31  25  78 W5        30.11F WCI  26
MOBRIDGE       CLOUDY    20  14  77 CALM      30.08F
$$

SDZ012>016-024>037-041>051-057-063-072>074-190300-
SOUTHWEST AND SOUTH CENTRAL SOUTH DAKOTA

CITY           SKY/WX    TMP DP  RH WIND       PRES   REMARKS
RAPID CTY ARPT CLOUDY    24  17  74 W5        30.16R WCI  18
PIERRE         CLEAR     28  20  71 SW5       30.14S WCI  23
CUSTER         CLOUDY    28  11  48 W6        30.12S WCI  22
ELLSWORTH AFB  CLOUDY    29  19  68 SW7       30.14S WCI  21
PHILIP         MOCLDY    31  25  78 W8        30.16R WCI  23
PINE RIDGE     CLEAR     30  16  56 NW3       30.18R
SPEARFISH      FAIR      34  16  47 W9        30.13S WCI  26
WINNER         FAIR      29  21  72 SW6       30.16S WCI  23
$$

SDZ004>011-016>023-039-040-190300-
NORTHEAST SOUTH DAKOTA

CITY           SKY/WX    TMP DP  RH WIND       PRES   REMARKS
ABERDEEN       CLOUDY    22  15  75 W8        30.12F WCI  12
WATERTOWN      CLEAR     21  13  71 NW8       30.07R WCI  11
BROOKINGS      CLEAR     22  15  75 NW9       30.10R WCI  12
SISSETON         N/A     15   9  76 NW7       30.09S WCI   5
$$

SDZ017-020-022-023-036>040-048>070-190300-
SOUTHEAST SOUTH DAKOTA

CITY           SKY/WX    TMP DP  RH WIND       PRES   REMARKS
SIOUX FALLS    CLEAR     29  16  58 NW13      30.12R WCI  19
HURON          CLEAR     18  13  80 W8        30.15R WCI   8
CHAMBERLAIN    CLEAR     29  22  76 NW5       30.16R WCI  24
MITCHELL       CLEAR     26  17  68 W6        30.17S WCI  19
YANKTON        CLEAR     29  21  72 W10       30.17R WCI  20
$$

ABBREVIATIONS USED IN REMARKS
   TC - TEMPERATURE IN CELSIUS
  WCI - WIND CHILL INDEX
   HX - HEAT INDEX
  VSB - VISIBILITY





USA.gov is the U.S. government's official web portal to all federal, state and local government web resources and services.